Location: Observatorio Las Palmas
(29.0667°N, 110.9333°W)
Time: 11:50:04
(UTC-07:00)

HST - Visible Passes

Search period start: 29 July 2014 00:00
Search period end: 08 August 2014 00:00
Orbit: 547 x 552 km, 28.5° (Epoch: 28 July)

Date Brightness Start Highest point End Pass type
(mag) Time Alt. Az. Time Alt. Az. Time Alt. Az.
29 Jul 2.2 20:44:20 10° WSW 20:47:44 24° SSW 20:48:32 23° S visible
30 Jul 2.6 20:37:54 10° WSW 20:40:49 18° SSW 20:42:00 17° S visible
31 Jul 3.0 20:31:44 10° WSW 20:33:54 14° SSW 20:35:30 12° S visible
